www.pogodaiklimat.ru

Погода и климат >> Архив погоды >> Австралия >> Longreach Airport


ПОГОДА в Longreach Airport

  • Прогноз погоды в Longreach Airport
  • Монитор погоды в Longreach Airport
  • Климат города

АРХИВ ПОГОДЫ в Longreach Airport

Время (UTC), дата Ветер
(напр.,м/с)
 
Видим.   Явления Облачность Т
(С)
Тd
(С)
f
(%)
Тe
(С)
Тes
(С)
Комфортность P
(гПа)
Po
(гПа)
Тmin
(С)
Tmax
(С)
R
(мм)
R24
(мм)
S
(см)
08 18.04 В 7 н/о н/о +30.1 +7.1 24 +29 +29 жарко 1016.6 994.5
09 18.04 В 5 н/о н/о +28.1 +7.0 26 +27 +27 жарко 1017.5 995.4
11 18.04 В 7 н/о н/о +26.3 +6.8 29 +26 +26 жарко 1018.6 996.5
12 18.04 В 5 н/о н/о +24.2 +7.0 33 +24 +24 комфорт 1018.9 996.8
14 18.04 В 5 н/о н/о +23.2 +8.4 39 +24 +24 комфорт 1018.9 996.8 +33.6
15 18.04 В 5 н/о н/о +22.0 +8.9 43 +23 +23 комфорт 1018.9 996.8
17 18.04 В 4 н/о н/о +18.0 +8.8 55 +18 +18 1018.7 996.6
18 18.04 В 4 н/о н/о +19.1 +9.8 55 +20 +20 1018.7 996.6
20 18.04 В 5 н/о н/о +19.4 +10.4 56 +20 +20 1020.1 997.9
21 18.04 В 4 н/о н/о +18.0 +9.9 59 +18 +18 1021.0 998.8
23 18.04 В 9 н/о н/о +24.9 +12.2 45 +27 +27 жарко 1021.7 999.5
00 19.04 В 8 н/о н/о +26.7 +12.0 40 +28 +28 жарко 1021.7 999.5
02 19.04 В 8 н/о н/о +29.7 +9.4 28 +29 +29 жарко 1019.4 997.3 +17.5
03 19.04 В 6 н/о н/о +30.8 +8.0 24 +30 +30 жарко 1018.3 996.2
05 19.04 В 8 н/о н/о +32.5 +5.4 18 +30 +30 жарко 1016.9 994.8
06 19.04 В 7 н/о н/о +32.2 +4.1 17 +30 +30 жарко 1016.8 994.7
08 19.04 В 5 н/о н/о +29.3 +4.6 21 +28 +28 жарко 1017.7 995.6
09 19.04 В 4 н/о н/о +26.5 +5.1 25 +26 +26 жарко 1018.4 996.3
11 19.04 В 6 н/о н/о +25.5 +4.8 26 +25 +25 комфорт 1019.6 997.4
12 19.04 В 6 н/о н/о +24.2 +5.6 30 +24 +24 комфорт 1019.8 997.6
14 19.04 В 5 н/о н/о +22.5 +6.8 36 +23 +23 комфорт 1019.9 997.7 +32.9
15 19.04 В 6 н/о н/о +21.6 +7.3 40 +23 +23 комфорт 1019.4 997.3
17 19.04 В 5 н/о н/о +18.2 +6.9 48 +18 +18 1018.7 996.6
18 19.04 В 4 н/о н/о +17.8 +7.3 50 +18 +18 1018.8 996.7
20 19.04 ЮВ 5 н/о н/о +16.9 +7.4 53 +16 +16 1020.5 998.3
21 19.04 ЮВ 4 н/о н/о +16.6 +7.5 55 +16 +16 1021.3 999.1
23 19.04 В 8 н/о н/о +24.1 +11.8 46 +26 +26 жарко 1022.4 1000.2
00 20.04 В 8 н/о н/о +26.0 +11.0 39 +27 +27 жарко 1022.1 999.9
02 20.04 В 7 н/о н/о +28.2 +9.4 31 +28 +28 жарко 1020.1 997.9 +16.7
03 20.04 ЮВ 7 н/о н/о +30.5 +6.6 22 +29 +29 жарко 1018.3 996.2
05 20.04 В 7 н/о н/о +31.2 +3.7 18 +29 +29 жарко 1016.7 994.6
06 20.04 ЮВ 6 н/о н/о +30.9 +2.7 17 +28 +28 жарко 1016.5 994.4
08 20.04 В 5 н/о н/о +28.5 +4.0 21 +27 +27 жарко 1017.3 995.2
09 20.04 В 4 н/о н/о +25.7 +5.2 27 +25 +25 комфорт 1017.9 995.8
11 20.04 В 4 н/о н/о +21.7 +5.3 34 +22 +22 комфорт 1019.2 997.1
12 20.04 В 4 н/о н/о +21.1 +5.2 35 +22 +22 комфорт 1019.3 997.2
14 20.04 В 5 н/о н/о +20.8 +6.7 40 +22 +22 комфорт 1018.3 996.2 +32.2
15 20.04 В 6 н/о н/о +21.4 +8.1 42 +22 +22 комфорт 1018.1 996.0
17 20.04 В 5 н/о н/о +19.6 +8.8 50 +20 +20 1017.3 995.2
18 20.04 В 4 н/о н/о +18.2 +8.6 53 +18 +18 1017.2 995.1
20 20.04 В 3 н/о н/о +16.6 +9.1 61 +16 +16 1018.3 996.2
21 20.04 В 3 н/о н/о +17.2 +9.2 59 +17 +17 1019.4 997.3
23 20.04 СВ 8 н/о н/о +24.6 +11.8 45 +26 +26 жарко 1020.3 998.1
00 21.04 СВ 7 н/о н/о +26.2 +11.8 41 +28 +28 жарко 1020.4 998.2
02 21.04 СВ 5 н/о н/о +28.3 +10.1 32 +29 +29 жарко 1018.2 996.1 +16.2
03 21.04 В 5 н/о н/о +30.1 +6.5 23 +29 +29 жарко 1016.9 994.8
05 21.04 В 7 н/о н/о +31.4 +7.4 22 +30 +30 жарко 1015.6 993.5
06 21.04 В 7 н/о н/о +31.0 +6.0 21 +29 +29 жарко 1015.3 993.2
08 21.04 В 5 н/о н/о +28.4 +7.9 28 +28 +28 жарко 1015.9 993.8
09 21.04 В 4 н/о н/о +24.6 +8.5 36 +25 +25 комфорт 1016.7 994.6
11 21.04 В 7 н/о н/о +25.4 +12.2 44 +27 +27 жарко 1018.1 996.0
12 21.04 В 5 н/о н/о +24.1 +13.1 50 +26 +26 жарко 1018.4 996.3
14 21.04 В 6 н/о ясно +23.2 +14.0 56 +27 +27 душно 1018.3 996.2 +32.0
15 21.04 В 6 н/о н/о +22.7 +14.2 59 +26 +26 жарко 1017.5 995.4
17 21.04 В 4 н/о н/о +20.0 +14.0 68 +22 +22 комфорт 1017.0 994.9
18 21.04 ЮВ 4 н/о н/о +19.4 +13.5 69 +21 +21 комфорт 1016.9 994.8
20 21.04 В 4 н/о 5/0
[]
+18.1 +13.4 74 +18 +18 1017.4 995.3
21 21.04 В 4 н/о н/о +18.2 +13.3 73 +18 +18 1018.0 995.9
23 21.04 СВ 9 н/о н/о +25.2 +11.5 42 +27 +27 жарко 1019.3 997.2
00 22.04 СВ 9 н/о н/о +26.7 +11.3 38 +28 +28 жарко 1019.6 997.4
02 22.04 СВ 8 н/о н/о +30.0 +10.2 29 +30 +30 жарко 1017.6 995.5 +17.9
03 22.04 В 7 н/о н/о +30.6 +9.6 27 +30 +30 жарко 1016.5 994.4
05 22.04 ЮВ 4 н/о 5/0 2000 м
[]
+29.9 +10.3 30 +30 +34 жарко 1015.0 992.9
06 22.04 В 6 н/о н/о +30.8 +10.0 28 +31 +31 жарко 1014.7 992.7
08 22.04 В 4 н/о н/о +28.4 +9.2 30 +28 +28 жарко 1015.7 993.6
09 22.04 В 4 н/о н/о +25.6 +9.2 35 +26 +26 жарко 1016.2 994.1
11 22.04 В 5 н/о н/о +24.9 +8.7 36 +25 +25 комфорт 1017.6 995.5
12 22.04 В 5 н/о н/о +24.3 +8.8 37 +25 +25 комфорт 1017.7 995.6
14 22.04 СВ 4 н/о н/о +22.1 +9.3 44 +24 +24 комфорт 1017.7 995.6 +32.3
15 22.04 СВ 5 н/о н/о +22.1 +9.3 44 +24 +24 комфорт 1017.3 995.2
17 22.04 СВ 4 н/о н/о +18.9 +9.3 54 +20 +20 1016.4 994.3
18 22.04 СВ 4 н/о н/о +17.8 +9.5 58 +18 +18 1016.3 994.2
20 22.04 В 4 н/о н/о +17.9 +10.0 60 +18 +18 1017.6 995.5
21 22.04 В 4 н/о н/о +17.6 +10.3 62 +17 +17 1018.4 996.3
23 22.04 СВ 7 н/о н/о +24.8 +13.6 50 +27 +27 жарко 1019.3 997.2
00 23.04 СВ 7 н/о н/о +26.6 +13.6 45 +29 +29 жарко 1019.3 997.2
02 23.04 В 5 н/о н/о +29.1 +10.6 32 +29 +29 жарко 1017.6 995.5 +17.2
03 23.04 СВ 3 н/о н/о +30.7 +10.6 29 +31 +31 жарко 1016.4 994.3
05 23.04 В 5 н/о 3/0 2000 м
[]
+32.0 +8.8 24 +31 +34 жарко 1015.0 992.9
06 23.04 В 5 н/о н/о +30.6 +9.4 27 +30 +30 жарко 1014.6 992.6
08 23.04 В 3 н/о н/о +28.4 +8.7 29 +28 +28 жарко 1015.6 993.5
09 23.04 В 4 н/о н/о +25.7 +8.4 33 +26 +26 жарко 1015.7 993.6
11 23.04 В 4 н/о н/о +23.1 +7.8 37 +24 +24 комфорт 1017.3 995.2
12 23.04 В 4 н/о н/о +22.6 +8.1 39 +24 +24 комфорт 1017.5 995.4
14 23.04 СВ 2 н/о н/о +20.6 +9.9 50 +23 +23 комфорт 1017.0 994.9 +32.7
15 23.04 В 3 н/о н/о +20.9 +11.0 53 +23 +23 комфорт 1016.9 994.8
17 23.04 В 4 н/о н/о +19.0 +10.3 57 +20 +20 1016.2 994.1
18 23.04 В 4 н/о н/о +18.2 +11.5 65 +18 +18 1015.8 993.7
20 23.04 В 3 н/о н/о +17.4 +11.8 70 +18 +18 1016.7 994.6
21 23.04 В 3 н/о н/о +17.6 +11.4 67 +18 +18 1017.4 995.3
23 23.04 СВ 5 н/о н/о +25.3 +14.6 52 +28 +28 жарко 1018.2 996.1
00 24.04 СВ 6 н/о н/о +27.9 +13.5 41 +30 +30 жарко 1018.2 996.1
02 24.04 СВ 5 н/о н/о +30.3 +12.4 33 +31 +31 жарко 1016.3 994.2 +17.3
03 24.04 В 3 н/о н/о +30.5 +11.8 32 +31 +31 жарко 1015.6 993.5
05 24.04 В 4 н/о н/о +32.3 +10.6 26 +32 +32 жарко 1013.5 991.5
06 24.04 ЮВ 4 н/о н/о +32.4 +9.7 25 +32 +32 жарко 1013.3 991.3
08 24.04 В 4 н/о н/о +29.3 +9.9 30 +29 +29 жарко 1013.7 991.7
09 24.04 В 4 н/о н/о +25.9 +9.9 36 +27 +27 жарко 1014.3 992.3
11 24.04 В 4 н/о н/о +23.9 +9.5 40 +25 +25 комфорт 1015.5 993.4
12 24.04 СВ 4 н/о н/о +23.3 +9.1 40 +25 +25 комфорт 1015.8 993.7
14 24.04 СВ 4 н/о н/о +21.2 +9.3 47 +23 +23 комфорт 1015.4 993.3 +33.0
15 24.04 СВ 4 н/о н/о +19.7 +9.4 51 +21 +21 комфорт 1015.2 993.1
17 24.04 СВ 5 н/о н/о +18.6 +9.6 56 +19 +19 1014.0 992.0
18 24.04 СВ 4 н/о н/о +18.0 +10.0 59 +18 +18 1014.0 992.0
20 24.04 СВ 2 н/о н/о +16.8 +10.9 68 +17 +17 1015.0 992.9
21 24.04 СВ 3 н/о н/о +18.4 +11.9 66 +19 +19 1015.4 993.3
23 24.04 С 7 н/о н/о +25.1 +14.0 50 +27 +27 жарко 1016.4 994.3
00 25.04 С 7 н/о н/о +27.3 +14.4 45 +30 +30 душно 1016.5 994.4
02 25.04 С 4 н/о н/о +30.7 +12.5 33 +32 +32 жарко 1014.4 992.4 +16.7
03 25.04 С 3 н/о н/о +32.2 +11.0 27 +32 +32 жарко 1013.1 991.1
05 25.04 СЗ 4 н/о н/о +33.3 +8.9 22 +32 +32 жарко 1011.5 989.5
06 25.04 З 3 н/о н/о +33.6 +8.8 22 +32 +32 жарко 1011.5 989.5

 

Местоположение метеостанции Longreach Airport (Квинсленд, Австралия): широта -23.43 долгота 144.28 высота над уровнем моря 192 м.

В архиве по умолчанию представлена погода в Longreach Airport за последнюю неделю. Архивные данные за месяц целиком и за предыдущие месяцы, начиная с января 2011 года, Вы можете получить, выбрав интересующий диапазон дат из раскрывающегося списка и нажав кнопку "Ввод!".

Внимание! Время в таблицах - всемирное. Для получения местного времени необходимо прибавить поправку, которая в Longreach Airport равна 10 ч.

Смотрите также архив погоды в соседних городах и на ближайших метеорологических станциях:

Погода в Blackall Airport (Квинсленд, Австралия) (161 км)
Погода в Winton Airport (Квинсленд, Австралия) (170 км)
Погода в Hughenden Airport (Квинсленд, Австралия) (290 км)
Погода в Richmond Airport (Квинсленд, Австралия) (327 км)
Погода в Lochington (Квинсленд, Австралия) (335 км)
Погода в Clermont Airport (Квинсленд, Австралия) (349 км)
Погода в Charleville Aero (Квинсленд, Австралия) (387 км)
Погода в Trepell Airport (Квинсленд, Австралия) (392 км)
Погода в Emerald Airport (Квинсленд, Австралия) (398 км)
Погода в Julia Creek Airport (Квинсленд, Австралия) (404 км)

Пояснения к столбцам:

Ветер - указаны скорость ветра в м/с - средняя за 10 мин, порывы в срок и между сроками (в фигурных скобках) и направление, откуда дует ветер: С - северный, СВ - северо-восточный, В - восточный, ЮВ - юго-восточный, Ю - южный, ЮЗ - юго-западный, З - западный, СЗ - северо-западный.
Видимость - горизонтальная дальность видимости в метрах или километрах. При видимости от 1 до 10 км при отсутствии осадков обычно наблюдается дымка, при ухудшении видимости до 1 км и менее - туман. В сухую погоду видимость может ухудшаться дымом, пылью или мглою.
Явления - указаны атмосферные явления, наблюдавшиеся в срок или в последний час перед сроком; фигурными скобками обозначены явления, наблюдавшиеся между сроками (за 1-3 часа до срока); квадратными скобками обозначены град или гололедные отложения с указанием их диаметра в мм.
Облачность - указаны через наклонную черту общая и нижняя облачность в баллах и высота нижней границы облаков в метрах; квадратными скобками обозначены формы облаков: Ci - перистые, Cs - перисто-слоистые, Cc - перисто-кучевые, Ac - высококучевые, As - высокослоистые, Sc - слоисто-кучевые, Ns - слоисто-дождевые, Cu - кучевые, Cb - кучево-дождевые. Подробнее классификацию облаков см. в Атласе облаков (PDF).
T - Температура воздуха - температура, измеренная на высоте 2 м над землей.
Td - Температура точки росы - температура, при понижении до которой содержащийся в воздухе водяной пар достигнет насыщения.
f - Относительная влажность воздуха - влажноcть воздуха, измеренная на высоте 2 м над землей.
Te - Эффективная температура - температура, которую ощущает одетый по сезону человек в тени. Характеристика душности погоды. При расчете учитывается влияние влажности воздуха и скорости ветра на теплоощущения человека.
Tes - Эффективная температура на солнце - температура, которую ощущает человек, с поправкой на солнечный нагрев. Характеристика знойности погоды. Зависит от высоты солнца над горизонтом, облачности и скорости ветра. Ночью, в пасмурную погоду, а также при ветре 12 м/с и более поправка равна нулю.
P - Атмосферное давление - приведенное к уровню моря атмосферное давление.
Po - Атмосферное давление - измеренное на уровне метеостанции атмосферное давление.
Tmin - Минимальная температура - минимум температуры воздуха на высоте 2 м над землей.
Tmax - Максимальная температура - максимум температуры воздуха на высоте 2 м над землей.
R - Количество осадков - Количество выпавших осадков за период времени, мм. При наведении курсора мыши на число - период времени, за который выпало указанное количество осадков.
R24 - Количество осадков - Количество выпавших осадков за 24 часа, мм.
S - Снежный покров - Высота снежного покрова, см. При наведении курсора мыши на число - состояние снежного покрова и степень покрытия местности в баллах.